Regional Weather Roundup
Issued by NWS

Home | Current Version | Previous Version | Graphics & Text | Print | Product List | Glossary Off
Versions: 1 2 3 4 5 6 7 8 9 10 11 12 13 14 15 16 17 18 19 20 21 22 23 24 25 26 27 28 29 30 31 32 33 34 35 36 37 38 39 40 41 42 43 44 45 46 47 48 49 50

000
ASUS43 KDMX 241706
RWRIA

WEATHER ROUNDUP FOR IOWA
NATIONAL WEATHER SERVICE DES MOINES IA
1100 AM CST FRI FEB 24 2017

NOTE: "FAIR" INDICATES FEW OR NO CLOUDS BELOW 12,000 FEET WITH NO
SIGNIFICANT WEATHER AND/OR OBSTRUCTIONS TO VISIBILITY.

* - THESE STATIONS ARE NOT NWS STATIONS...THUS NOT UNDER NWS
QUALITY CONTROL.  THEY ALSO DO NOT REPORT WEATHER SUCH
AS PRECIPITATION OR FOG.

IAZ001>003-012>014-020>022-031>034-043>046-241800-
   NORTHWEST IOWA

CITY           SKY/WX    TMP DP  RH WIND       PRES   REMARKS
CARROLL *      MIX PCPN  25  25 100 N28G39    29.74S VSB 1/4 WCI   8
CHEROKEE *     CLOUDY    23  21  91 N21G29    29.82S WCI   8
DENISON *      HVY RAIN  23  21  93 N25G38    29.75R VSB 1/2 WCI   7
LE MARS *      CLOUDY    25  19  80 N25       29.88S HAZE    WCI   9
ORANGE CITY *    N/A     21  19  93 N17G26    29.86R WCI   7
SHELDON *      LGT SNOW  21  21 100 N29G36    29.84S WCI   3
SIOUX CITY     HAZE      25  20  81 N24       29.88R VSB 1   WCI   9
SPENCER        FOG       22  19  89 N25G32    29.81F VSB 3/4 WCI   5
STORM LAKE *   LGT SNOW  21  19  93 N30G44    29.77S VSB 1   WCI   3
$$

IAZ055>058-069>071-079>083-090>094-241800-
   SOUTHWEST IOWA

CITY           SKY/WX    TMP DP  RH WIND       PRES   REMARKS
ATLANTIC *     LGT RAIN  27  23  86 N25G32    29.74R WCI  11
CLARINDA *     PTSUNNY   30  28  93 N24       29.75R FOG     WCI  16
COUNCIL BLFS * LGT SNOW  25  27 100 N17G23    29.78R WCI  11
CRESTON *      PTSUNNY   28  28 100 N25G33    29.68R FOG     WCI  14
HARLAN  *      RAIN      25  25 100 N22G37    29.78R WCI  10
LAMONI         CLOUDY    34  31  88 N15G26    29.63S WCI  24
RED OAK *      MIX PCPN  27  25  93 N25G32    29.76R WCI  11
SHENANDOAH *   CLOUDY    28  25  86 N18G28    29.78R WCI  16
$$

IAZ047>049-059>061-072>074-084-241800-
   CENTRAL IOWA

CITY           SKY/WX    TMP DP  RH WIND       PRES   REMARKS
AMES           CLOUDY    30  27  88 N18G35    29.68R WCI  18
ANKENY *       CLOUDY    30  28  93 N20G28    29.68R FOG     WCI  18
BOONE *        MIX PCPN  27  27 100 N21G29    29.67R WCI  13
CHARITON *     LGT RAIN  36  34  93 N17G24    29.61S WCI  25
DES MOINES     LGT SNOW  32  29  88 N15G25    29.67R FOG     WCI  22
GRINNELL*      RAIN      32  31  97 N15       29.62R WCI  22
KNOXVILLE *    MIX PCPN  34  32  93 N14G21    29.61R WCI  24
MARSHALLTOWN   FRZ RAIN  31  30  96 N22G28    29.62R FOG     WCI  18
NEWTON *       PTSUNNY   32  30  93 NE17G23   29.62R FOG     WCI  21
PELLA *        CLOUDY    34  33  96 N12G18    29.63R FOG     WCI  25
PERRY *        CLOUDY    27  25  91 N24G33    29.72R FOG     WCI  13
$$

IAZ004>006-015-016-023>025-035-036-241800-
   NORTH CENTRAL IOWA

CITY           SKY/WX    TMP DP  RH WIND       PRES   REMARKS
ALGONA *       FOG       23  23 100 N33G45    29.75R VSB<1/4 WCI   5
CLARION *      FOG       25  25 100 N24G33    29.71R VSB 1/4 WCI   9
ESTHERVILLE    FOG       21  20  96 N26G36    29.80S VSB 1/4 WCI   4
FORT DODGE *   CLOUDY    25  18  74 N15G28    29.74R WCI  12
MASON CITY     LGT SNOW  26  26 100 N25G35    29.71R FOG     WCI  11
FOREST CITY *  SNOW      27  23  86 N23G30    29.72S VSB 1/2 WCI  12
WEBSTER CITY * LGT RAIN  25  23  93 N31G38    29.68R VSB 3/4 WCI   8
IOWA FALLS *   CLOUDY    30  27  86 N17G26    29.66R WCI  19
$$

IAZ007>011-017>019-026>030-037>042-050>054-066-241800-
   NORTHEAST IOWA

CITY           SKY/WX    TMP DP  RH WIND       PRES   REMARKS
CEDAR RAPIDS   CLOUDY    33  33 100 N17       29.54S FOG     WCI  22
CHARLES CITY * RAIN      30  30 100 N22G30    29.64F WCI  17
CLINTON *      MIX PCPN  36  35  96 NE15      29.51R FOG     WCI  27
DECORAH *      MOSUNNY   28  28 100 NE15G22   29.62F FOG     WCI  17
DUBUQUE        CLOUDY    31  31 100 NE20G31   29.52S FOG     WCI  19
MONTICELLO *   PTSUNNY   34  32  93 N14G22    29.55R FOG     WCI  24
OELWEIN *      MOSUNNY   30  30 100 NE23G30   29.59F FOG     WCI  17
WATERLOO       FRZ RAIN  31  29  92 N18G25    29.61S FOG     WCI  19
$$

IAZ064-065-067-068-078-241800-
   EAST CENTRAL IOWA

CITY           SKY/WX    TMP DP  RH WIND       PRES   REMARKS
DAVENPORT      MIX PCPN  37  35  92 N15       29.51R FOG     WCI  28
IOWA CITY      CLOUDY    36  33  89 N15       29.56R WCI  27
MUSCATINE *    CLOUDY    39  36  87 N13       29.53S WCI  32
QUAD CITIES    CLOUDY    41  37  86 N6        29.49R FOG
$$

IAZ062-063-075>077-085>089-095>099-241800-
   SOUTHEAST IOWA

CITY           SKY/WX    TMP DP  RH WIND       PRES   REMARKS
BURLINGTON     CLOUDY    41  39  93 W13       29.51R
FAIRFIELD *    CLOUDY    37  36  93 NW14      29.56R WCI  29
KEOKUK *       CLOUDY    41  39  93 W14       29.55R
CENTERVILLE *  LGT RAIN  36  36 100 NW17      29.61  WCI  25
OTTUMWA        LGT RAIN  36  35  96 N18       29.59R FOG     WCI  26
WASHINGTON *   CLOUDY    37  36  93 N14       29.56R FOG     WCI  29
$$

ABBREVIATIONS USED IN REMARKS
   TC - TEMPERATURES IN CELSIUS
  WCI - WIND CHILL INDEX
   HX - HEAT INDEX
  VSB - VISIBILITY
$$





USA.gov is the U.S. government's official web portal to all federal, state and local government web resources and services.